Weather History for Milton, FL

Change the Weather History Date:

Friday, June 28, 2013

  Actual Average (KNSE) Record (KNSE)
Temperature  
Mean Temperature 84 °F -  
Max Temperature 93 °F 86 °F 102 °F (1999)
Min Temperature 75 °F 69 °F 64 °F (2012)
Cooling Degree Days 19    
Growing Degree Days 34 (Base 50)    
Moisture  
Dew Point 74 °F    
Average Humidity 76    
Maximum Humidity 90    
Minimum Humidity 50    
Precipitation  
Precipitation 0.00 in - - ()
Sea Level Pressure  
Sea Level Pressure 29.81 in    
Wind  
Wind Speed 4 mph (WSW)    
Max Wind Speed 21 mph    
Max Gust Speed 31 mph    
Visibility 10 miles    
Events Rain , Thunderstorm    
Averages and records for this station are not official NWS values.
T = Trace of Precipitation, MM = Missing Value Source: NWS Daily Summary

Daily Weather History Graph

Daily Weather History Graph

Search for Another Location

Airport:

Trip Planner

Search our weather history database for the weather conditions in past years. The results will help you decide how hot, cold, wet, or windy it might be!

Date:

Astronomy

Jun. 28, 2013 Rise Set
Actual Time 5:47 AM CDT 7:54 PM CDT
Civil Twilight 5:20 AM CDT 8:22 PM CDT
Nautical Twilight 4:46 AM CDT 8:56 PM CDT
Astronomical Twilight 4:10 AM CDT 9:32 PM CDT
Moon 11:51 PM CDT (6/28) 11:29 AM CDT (6/28)
Length of Visible Light 15h 02m
Length of Day
14h 07m
Waning Gibbous, 66% of the Moon is Illuminated
Jun 28
Waning Gibbous
Jun 29
Last Quarter
Jul 8
New
Jul 15
First Quarter
Jul 22
Full

Hourly Weather History & Observations

Time (CDT) Temp. Heat Index Dew Point Humidity Pressure Visibility Wind Dir Wind Speed Gust Speed Precip Events Conditions
12:56 AM 81.0 °F 87.9 °F 77.0 °F 88% 29.88 in 10.0 mi Calm Calm - N/A   Clear
1:56 AM 81.0 °F 87.9 °F 77.0 °F 88% 29.87 in 10.0 mi Calm Calm - N/A   Clear
2:56 AM 81.0 °F 87.9 °F 77.0 °F 88% 29.85 in 10.0 mi Calm Calm - N/A   Clear
3:56 AM 80.1 °F 85.8 °F 77.0 °F 90% 29.85 in 10.0 mi South 3.5 mph - N/A   Clear
4:56 AM 80.1 °F 85.8 °F 77.0 °F 90% 29.86 in 10.0 mi Calm Calm - N/A   Mostly Cloudy
5:56 AM 81.0 °F 87.9 °F 77.0 °F 88% 29.86 in 10.0 mi Variable 3.5 mph - N/A   Clear
6:56 AM 82.0 °F 91.0 °F 78.1 °F 88% 29.86 in 10.0 mi Variable 4.6 mph - N/A   Clear
8:56 AM 84.9 °F 94.1 °F 75.9 °F 74% 29.88 in 10.0 mi NW 4.6 mph - N/A   Mostly Cloudy
9:56 AM 89.1 °F 100.2 °F 75.9 °F 65% 29.86 in 10.0 mi NW 8.1 mph - N/A   Clear
10:56 AM 89.1 °F 98.0 °F 73.9 °F 61% 29.87 in 10.0 mi West 5.8 mph - N/A   Mostly Cloudy
11:56 AM 91.9 °F 100.7 °F 73.0 °F 54% 29.85 in 10.0 mi WNW 5.8 mph - N/A   Partly Cloudy
12:56 PM 93.0 °F 100.7 °F 72.0 °F 50% 29.82 in 10.0 mi West 6.9 mph - N/A   Partly Cloudy
1:56 PM 93.0 °F 101.9 °F 73.0 °F 52% 29.78 in 10.0 mi SSW 9.2 mph - N/A   Partly Cloudy
2:56 PM 93.0 °F 101.9 °F 73.0 °F 52% 29.77 in 10.0 mi Variable 5.8 mph - N/A   Scattered Clouds
3:47 PM 89.6 °F 98.2 °F 73.4 °F 59% 29.82 in 10.0 mi NW 3.5 mph - N/A Thunderstorm Thunderstorm
3:56 PM 87.1 °F 92.8 °F 71.1 °F 59% 29.79 in 10.0 mi NNE 20.7 mph 31.1 mph N/A Thunderstorm Thunderstorm
4:13 PM 80.6 °F 83.9 °F 69.8 °F 70% 29.83 in 10.0 mi North 19.6 mph 27.6 mph N/A Thunderstorm Thunderstorm
4:56 PM 77.0 °F - 70.0 °F 79% 29.75 in 10.0 mi West 3.5 mph - 0.00 in Thunderstorm Thunderstorm
5:56 PM 75.9 °F - 71.1 °F 85% 29.77 in 10.0 mi South 3.5 mph - 0.00 in Rain , Thunderstorm Light Thunderstorms and Rain
6:31 PM 75.2 °F - 71.6 °F 89% 29.80 in 10.0 mi South 4.6 mph - 0.00 in   Clear
6:56 PM 77.0 °F - 72.0 °F 84% 29.74 in 10.0 mi South 3.5 mph - 0.00 in   Clear
7:56 PM 78.1 °F - 73.9 °F 87% 29.73 in 10.0 mi South 5.8 mph - N/A   Clear
8:56 PM 80.1 °F 85.1 °F 75.0 °F 85% 29.76 in 10.0 mi SE 5.8 mph - N/A   Clear
9:56 PM 79.0 °F - 75.9 °F 90% 29.77 in 10.0 mi Calm Calm - N/A   Scattered Clouds
10:56 PM 82.9 °F 90.8 °F 75.9 °F 79% 29.75 in 10.0 mi Variable 3.5 mph - N/A   Mostly Cloudy
11:56 PM 82.9 °F 92.8 °F 78.1 °F 85% 29.74 in 10.0 mi Variable 3.5 mph - N/A   Scattered Clouds